{"data":{"norad_id":58989,"epoch":"2026-09-22T22:56:07.770336Z","epoch_age_seconds":42973,"freshness":"FRESH","line1":"1 58989U 24032C   26265.95564549  .00000631  00000+0  10689-3 0  9994","line2":"2 58989  97.9868 322.7013 0004800 178.9854 181.1364 14.72642779139477","mean_motion":14.72642779,"eccentricity":0.00048,"inclination_deg":97.9868,"raan_deg":322.7013,"arg_perigee_deg":178.9854,"mean_anomaly_deg":181.1364,"bstar":0.00010689,"rev_number":13947,"period_min":97.78338783407,"perigee_km":649.26916205366,"apogee_km":656.01871175309,"semimajor_km":7030.7809369034,"source":"CELESTRAK","updated_at":"2026-09-23T09:00:19.122910Z"}}